Change the Weather History Date:

Monday, February 17, 2014

  Actual Average Record
Temperature  
Mean Temperature 80 °F -  
Max Temperature 88 °F 84 °F 89 °F (1998)
Min Temperature 73 °F 75 °F 73 °F (2004)
Cooling Degree Days 16    
Growing Degree Days 30 (Base 50)    
Moisture  
Dew Point 71 °F    
Average Humidity 75    
Maximum Humidity 94    
Minimum Humidity 59    
Precipitation  
Precipitation 0.03 in - - ()
Sea Level Pressure  
Sea Level Pressure 29.99 in    
Wind  
Wind Speed 7 mph ()    
Max Wind Speed 25 mph    
Max Gust Speed -    
Visibility 8.3 miles    
Events Rain    
Averages and records for this station are not official NWS values.
T = Trace of Precipitation, MM = Missing Value Source: Averaged Metar Reports

Daily Weather History Graph

Daily Weather History Graph

Search for Another Location

Airport or City:

Trip Planner

Search our weather history database for the weather conditions in past years. The results will help you decide how hot, cold, wet, or windy it might be!

Date:

Astronomy

Feb. 17, 2014 Rise Set
Actual Time 6:33 AM EST 6:09 PM EST
Civil Twilight 6:11 AM EST 6:31 PM EST
Nautical Twilight 5:45 AM EST 6:57 PM EST
Astronomical Twilight 5:20 AM EST 7:22 PM EST
Moon 8:30 PM EST (2/17) 8:00 AM EST (2/17)
Length of Visible Light 12h 20m
Length of Day
11h 36m
Waning Gibbous, 93% of the Moon is Illuminated
Feb 17
Waning Gibbous
Feb 22
Last Quarter
Mar 1
New
Mar 8
First Quarter
Mar 16
Full

Hourly Weather History & Observations

Time (EST) Temp. Heat Index Dew Point Humidity Pressure Visibility Wind Dir Wind Speed Gust Speed Precip Events Conditions
12:00 AM 78.8 °F - 71.6 °F 78% 30.01 in 6.2 mi NNW 5.8 mph - N/A   Partly Cloudy
1:00 AM 78 °F - 72 °F 78% 30.00 in 14 mi North 9.2 mph - -   Haze
1:00 AM 77.0 °F - 71.6 °F 83% 29.98 in 6.2 mi North 9.2 mph - N/A   Partly Cloudy
2:00 AM 77.0 °F - 69.8 °F 78% 29.98 in 6.2 mi North 9.2 mph - N/A   Partly Cloudy
3:00 AM 77.0 °F - 69.8 °F 78% 29.98 in 6.2 mi North 4.6 mph - N/A   Partly Cloudy
4:00 AM 76 °F - 71 °F 80% 29.98 in 15 mi North 3.5 mph - -   Scattered Clouds
4:00 AM 77.0 °F - 71.6 °F 83% 29.98 in 6.2 mi North 3.5 mph - N/A   Partly Cloudy
5:00 AM 77.0 °F - 71.6 °F 83% 29.98 in 6.2 mi NNE 3.5 mph - N/A   Partly Cloudy
6:00 AM 77.0 °F - 71.6 °F 83% 29.98 in 6.2 mi North 3.5 mph - N/A   Partly Cloudy
7:00 AM 75 °F - 73 °F 91% 30.01 in 15 mi North 4.6 mph - -   Haze
7:00 AM 75.2 °F - 73.4 °F 94% 30.01 in 6.2 mi North 4.6 mph - N/A   Partly Cloudy
8:00 AM 78.8 °F - 69.8 °F 74% 30.01 in 6.2 mi NNE 6.9 mph - N/A   Partly Cloudy
9:00 AM 82.4 °F 86.3 °F 69.8 °F 66% 30.04 in 6.2 mi Variable 2.3 mph - N/A   Partly Cloudy
10:00 AM 82 °F - 70 °F 59% 30.04 in 15 mi West 4.6 mph - -   Haze
10:00 AM - - - N/A% - - West 4.6 mph - N/A   Unknown
11:00 AM 82.4 °F 86.3 °F 69.8 °F 66% 30.01 in 6.2 mi SSW 6.9 mph - N/A   Partly Cloudy
12:00 PM 82.4 °F 86.3 °F 69.8 °F 66% 30.01 in 6.2 mi SSW 10.4 mph - N/A   Partly Cloudy
1:00 PM 84 °F - 76 °F 72% 29.98 in 15 mi SSW 12.7 mph - -   Haze
1:00 PM 84.2 °F 94.1 °F 77.0 °F 79% 29.98 in 6.2 mi SSW 12.7 mph - N/A   Partly Cloudy
2:00 PM - - - N/A% - - SSE 18.4 mph - N/A   Unknown
3:00 PM 80.6 °F 83.2 °F 68.0 °F 65% 29.95 in 6.2 mi SE 25.3 mph - N/A   Partly Cloudy
4:00 PM 81 °F - 71 °F 64% 29.95 in 12 mi SE 17.3 mph - - Rain Light Rain Showers
4:00 PM 80.6 °F 84.6 °F 71.6 °F 74% 29.95 in 6.2 mi SE 17.3 mph - N/A Rain Light Rain Showers
5:00 PM 80.6 °F 82.7 °F 66.2 °F 61% 29.95 in 6.2 mi SSE 11.5 mph - N/A   Partly Cloudy
6:00 PM 80.6 °F 83.9 °F 69.8 °F 70% 29.95 in 6.2 mi SSE 10.4 mph - N/A   Partly Cloudy
7:00 PM 81 °F - 73 °F 71% 29.96 in 16 mi ESE 10.4 mph - -   Haze
7:00 PM 80.6 °F 85.4 °F 73.4 °F 79% 29.95 in 6.2 mi ESE 10.4 mph - N/A   Partly Cloudy
8:00 PM 80.6 °F 83.9 °F 69.8 °F 70% 29.98 in 6.2 mi NE 4.6 mph - N/A   Partly Cloudy
9:00 PM 78.8 °F - 71.6 °F 78% 29.98 in 6.2 mi North 6.9 mph - N/A   Partly Cloudy
10:00 PM 78 °F - 72 °F 77% 30.00 in 12 mi NNW 5.8 mph - -   Scattered Clouds
10:00 PM 78.8 °F - 71.6 °F 78% 29.98 in 6.2 mi NNW 5.8 mph - N/A   Partly Cloudy
11:00 PM 77.0 °F - 71.6 °F 83% 30.01 in 6.2 mi North 3.5 mph - N/A   Partly Cloudy